Kezdőlap
METAR-TAF:

METAR-TAF

Repülőterek :

Mount Pleasant Municipal Airport

Mount Pleasant, Iowa, Amerikai Egyesült Államok

földrajzi szélesség: 40-56-48N, földrajzi hosszúság: 091-30-40W, magasság: 224 m

Jelenlegi meteorológiai megfigyelések

A jelentés 37 perccel ezelõtt készült, 18:35 UTC
Dél-délnyugati szél 10 kt széllökések: 15 kt
Hőmérséklet 30°C
Páratartalom 75%
Légköri nyomás 1015 hPa
Látótávolság: 16.1 km
Derült ég

METAR: KMPZ 131835Z AUTO 21010G15KT 10SM CLR 30/25 A2997 RMK AO2

Idő: 14:12 (19:12 UTC)


TAF: hiányzik

Meteorológiai megfigyelések és előrejelzések több, mint 4000 repülőtéren (METAR és TAF jelentéseket).

A térképen piros és sárga pontok jelzik az elérhető meteorológiai állomásokat.

Mozgassa az egeret a pont fölött, hogy megjelenjen az állomás neve.

Azután kattintson az időjárási megfigyelések és előrejelzések megtekintéséhez.

A térkép megváltoztatása: kattintson a fekete keresztel jelölt zöld gombra ráközelítéshez, a vonallal jelölt zöld gombra távolításhoz, vagy a zöld nyilakra a szomszédos térképek eléréséhez.


METAR-TAF: